FW7086 Weather Reports


Display with metric or nautical units.
time (UTC)temp
F
wind
direction
speed
MPH
gust
MPH
rain 1hr
in
rain 24hr
in
rain mn
in
humidity
%
barometer
mb
20260904101827 80 182 1.0 1.0 0.00 0.00 0.00 81 1013.9
20260904101324 80 163 1.0 1.0 0.00 0.00 0.00 81 1013.9
20260904100819 80 89 0.0 0.0 0.00 0.00 0.00 81 1014.1
20260904100315 80 119 0.0 0.0 0.00 0.00 0.00 80 1013.9
20260904095815 81 153 0.0 1.0 0.00 0.00 0.00 80 1013.9
20260904095310 81 178 1.0 2.0 0.00 0.00 0.00 80 1014.0
20260904094805 80 163 1.0 2.0 0.00 0.00 0.00 81 1013.9
20260904094300 80 158 2.0 3.0 0.00 0.00 0.00 81 1013.8
20260904093757 80 197 3.0 4.0 0.00 0.00 0.00 81 1014.0
20260904093256 80 164 3.0 4.0 0.00 0.00 0.00 81 1014.0
20260904092752 80 172 3.0 4.0 0.00 0.00 0.00 82 1014.0
20260904092249 80 165 1.0 1.0 0.00 0.00 0.00 82 1014.0
20260904091745 80 122 0.0 1.0 0.00 0.00 0.00 83 1014.1
20260904091244 80 179 2.0 2.0 0.00 0.00 0.00 83 1014.1
20260904090740 80 169 2.0 2.0 0.00 0.00 0.00 83 1014.0
20260904090236 80 212 2.0 3.0 0.00 0.00 0.00 83 1014.3
20260904085736 80 181 2.0 2.0 0.00 0.00 0.00 84 1014.4
20260904085231 79 159 1.0 1.0 0.00 0.00 0.00 85 1014.5
20260904084726 79 159 0.0 0.0 0.00 0.00 0.00 87 1014.7
20260904084222 78 151 0.0 0.0 0.00 0.00 0.00 88 1014.7
20260904083718 78 161 0.0 0.0 0.00 0.00 0.00 88 1015.0
20260904083215 78 161 0.0 0.0 0.00 0.00 0.00 88 1014.7
20260904082714 78 162 0.0 0.0 0.00 0.00 0.00 88 1014.8
20260904082210 78 162 0.0 0.0 0.00 0.00 0.00 88 1014.8
20260904081705 78 159 0.0 0.0 0.00 0.00 0.00 88 1014.5
20260904081200 78 157 0.0 0.0 0.00 0.00 0.00 88 1014.6
20260904080656 78 157 0.0 0.0 0.00 0.00 0.00 88 1014.7
20260904080152 79 157 0.0 0.0 0.00 0.00 0.00 87 1014.7
20260904075648 79 155 0.0 0.0 0.00 0.00 0.00 86 1014.5
20260904075143 80 156 0.0 0.0 0.00 0.00 0.00 85 1014.4
20260904074642 80 156 0.0 0.0 0.00 0.00 0.00 85 1014.3
20260904074136 81 159 0.0 0.0 0.00 0.00 0.00 84 1014.2
20260904073632 81 174 2.0 2.0 0.00 0.00 0.00 83 1014.0
20260904073128 81 160 0.0 0.0 0.00 0.00 0.00 83 1014.1
20260904072623 81 137 0.0 1.0 0.00 0.00 0.00 84 1014.1
20260904072119 81 190 2.0 2.0 0.00 0.00 0.00 83 1013.9
20260904071614 81 172 1.0 2.0 0.00 0.00 0.00 83 1013.8
20260904071109 81 201 2.0 3.0 0.00 0.00 0.00 84 1014.0
20260904070608 81 192 3.0 4.0 0.00 0.00 0.00 84 1013.9
20260904065557 80 155 2.0 2.0 0.00 0.00 0.00 85 1014.1
20260904065054 80 161 1.0 1.0 0.00 0.00 0.00 85 1014.3
20260904064550 80 142 2.0 3.0 0.00 0.00 0.00 86 1014.4
20260904064049 80 160 2.0 2.0 0.00 0.00 0.00 85 1014.4
20260904063546 80 146 1.0 1.0 0.00 0.00 0.00 86 1014.4
20260904063041 79 131 0.0 1.0 0.00 0.00 0.00 87 1014.7
20260904062537 79 95 0.0 0.0 0.00 0.00 0.00 87 1014.8
20260904062032 78 67 0.0 0.0 0.00 0.00 0.00 86 1015.0
20260904061528 78 110 0.0 0.0 0.00 0.00 0.00 85 1015.1
20260904061025 78 86 0.0 0.0 0.00 0.00 0.00 86 1015.2
20260904060521 77 34 0.0 0.0 0.00 0.00 0.00 86 1015.4
20260904060016 77 34 0.0 0.0 0.00 0.00 0.00 86 1015.5
20260904055512 77 34 0.0 0.0 0.00 0.00 0.00 86 1015.4
20260904055007 77 34 0.0 0.0 0.00 0.00 0.00 86 1015.5
20260904054502 77 34 0.0 0.0 0.00 0.00 0.00 85 1015.5
20260904053958 77 34 0.0 0.0 0.00 0.00 0.00 85 1015.6
20260904053457 78 34 0.0 0.0 0.00 0.00 0.00 85 1015.6
20260904052953 78 9 0.0 0.0 0.00 0.00 0.00 84 1015.5
20260904052449 78 6 0.0 0.0 0.00 0.00 0.00 84 1015.4
20260904051945 78 6 0.0 0.0 0.00 0.00 0.00 84 1015.5
20260904051442 78 11 0.0 0.0 0.00 0.00 0.00 84 1015.3
20260904050940 78 4 0.0 0.0 0.00 0.00 0.00 84 1015.2
20260904050437 78 2 0.0 0.0 0.00 0.00 0.00 84 1015.3
20260904045937 78 20 0.0 0.0 0.00 0.00 0.00 84 1015.0
20260904045432 78 20 0.0 0.0 0.00 0.00 0.00 83 1015.2
20260904044932 78 20 0.0 0.0 0.00 0.00 0.00 83 1015.3
20260904044428 78 20 0.0 0.0 0.00 0.00 0.00 83 1015.1
20260904043924 78 20 0.0 0.0 0.00 0.00 0.00 82 1015.2
20260904043421 78 20 0.0 0.0 0.00 0.00 0.00 82 1015.1
20260904042916 78 20 0.0 0.0 0.00 0.00 0.00 82 1015.2
20260904042412 79 20 0.0 0.0 0.00 0.00 0.00 81 1015.2
20260904041907 79 23 0.0 0.0 0.00 0.00 0.00 81 1015.3
20260904041403 79 23 0.0 0.0 0.00 0.00 0.00 80 1015.3
20260904040859 79 23 0.0 0.0 0.00 0.00 0.00 79 1015.3
20260904040354 80 33 0.0 0.0 0.00 0.00 0.00 79 1015.4
20260904035850 80 44 0.0 0.0 0.00 0.00 0.00 79 1015.4
20260904035346 80 44 0.0 0.0 0.00 0.00 0.00 78 1015.3
20260904034845 80 53 1.0 1.0 0.00 0.00 0.00 78 1015.4
20260904034341 80 62 0.0 0.0 0.00 0.00 0.00 78 1015.3
20260904033836 80 28 0.0 0.0 0.00 0.00 0.00 78 1015.3
20260904033332 81 5 0.0 0.0 0.00 0.00 0.00 78 1015.3
20260904032829 81 17 0.0 0.0 0.00 0.00 0.00 78 1015.4
20260904032328 81 35 0.0 0.0 0.00 0.00 0.00 78 1015.5
20260904031822 81 28 0.0 0.0 0.00 0.00 0.00 78 1015.4
20260904031318 81 36 0.0 0.0 0.00 0.00 0.00 77 1015.4
20260904030814 81 14 0.0 0.0 0.00 0.00 0.00 77 1015.5
20260904030309 81 22 0.0 0.0 0.00 0.00 0.00 77 1015.4
20260904025805 81 66 0.0 0.0 0.00 0.00 0.00 77 1015.6
20260904025300 81 1 0.0 0.0 0.00 0.00 0.00 76 1015.6
20260904024755 82 17 0.0 0.0 0.00 0.00 0.00 77 1015.6
20260904024250 82 356 1.0 1.0 0.00 0.00 0.00 77 1015.7
20260904023747 81 55 0.0 0.0 0.00 0.00 0.00 77 1015.5
20260904023243 81 66 0.0 0.0 0.00 0.00 0.00 78 1015.3
20260904022742 81 67 0.0 0.0 0.00 0.00 0.00 78 1015.2
20260904022239 81 69 0.0 0.0 0.00 0.00 0.00 79 1015.1
20260904021735 81 88 0.0 0.0 0.00 0.00 0.00 78 1015.0
20260904021235 81 67 0.0 0.0 0.00 0.00 0.00 78 1015.1
20260904020731 80 27 0.0 0.0 0.00 0.00 0.00 79 1015.4
20260904020230 81 27 0.0 0.0 0.00 0.00 0.00 79 1015.3
20260904015729 81 27 0.0 0.0 0.00 0.00 0.00 78 1015.2
20260904015225 81 27 0.0 0.0 0.00 0.00 0.00 78 1015.2
20260904014723 81 27 0.0 0.0 0.00 0.00 0.00 77 1015.2
20260904014218 81 26 0.0 0.0 0.00 0.00 0.00 77 1015.1
20260904013715 81 27 0.0 0.0 0.00 0.00 0.00 76 1015.0
20260904013210 81 27 0.0 0.0 0.00 0.00 0.00 76 1014.9
20260904012706 82 26 0.0 0.0 0.00 0.00 0.00 76 1015.0
20260904012205 82 26 0.0 0.0 0.00 0.00 0.00 76 1015.0
20260904011705 82 49 0.0 0.0 0.00 0.00 0.00 75 1014.9
20260904011200 82 56 0.0 0.0 0.00 0.00 0.00 75 1014.5
20260904010655 82 66 0.0 0.0 0.00 0.00 0.00 74 1014.3
20260904010152 82 52 0.0 0.0 0.00 0.00 0.00 74 1014.3
20260904005647 82 64 0.0 0.0 0.00 0.00 0.00 74 1014.2
20260904005143 82 53 0.0 0.0 0.00 0.00 0.00 74 1014.0
20260904004638 82 36 0.0 0.0 0.00 0.00 0.00 74 1014.0
20260904004137 82 74 0.0 0.0 0.00 0.00 0.00 74 1013.9
20260904003633 82 70 0.0 0.0 0.00 0.00 0.00 74 1013.9
20260904003130 82 119 0.0 0.0 0.00 0.00 0.00 74 1014.1
20260904002625 82 53 0.0 0.0 0.00 0.00 0.00 73 1014.0
20260904002125 82 62 0.0 0.0 0.00 0.00 0.00 74 1014.0
20260904001621 82 72 0.0 0.0 0.00 0.00 0.00 73 1014.2
20260904001119 82 63 1.0 1.0 0.00 0.00 0.00 73 1014.3
20260904000615 83 80 1.0 2.0 0.00 0.00 0.00 74 1014.0
20260904000111 83 66 0.0 0.0 0.00 0.00 0.00 74 1014.1
20260903235610 83 66 0.0 0.0 0.00 0.00 0.00 73 1014.0
20260903235107 83 85 1.0 1.0 0.00 0.00 0.00 73 1014.2
20260903234601 83 86 0.0 0.0 0.00 0.00 0.00 73 1014.2
20260903234057 83 94 0.0 1.0 0.00 0.00 0.00 72 1013.9
20260903233553 84 66 0.0 0.0 0.00 0.00 0.00 72 1014.0
20260903233048 84 155 1.0 2.0 0.00 0.00 0.00 71 1014.1
20260903232543 84 138 1.0 2.0 0.00 0.00 0.00 71 1014.1
20260903232038 84 6 0.0 1.0 0.00 0.00 0.00 70 1014.2
20260903231532 85 53 2.0 2.0 0.00 0.00 0.00 68 1014.4
20260903231027 85 101 3.0 6.0 0.00 0.00 0.00 68 1014.3
20260903230524 86 79 1.0 1.0 0.00 0.00 0.00 65 1014.3
20260903230021 86 118 2.0 3.0 0.00 0.00 0.00 64 1014.4
20260903225520 86 138 2.0 2.0 0.00 0.00 0.00 64 1014.4
20260903225016 86 105 3.0 6.0 0.00 0.00 0.00 64 1014.2
20260903224512 87 107 1.0 1.0 0.00 0.00 0.00 65 1014.5
20260903224008 88 30 5.0 7.0 0.00 0.00 0.00 61 1014.5
20260903223507 88 34 6.0 9.0 0.00 0.00 0.00 60 1014.3
20260903223006 89 2 1.0 3.0 0.00 0.00 0.00 59 1014.5
20260903222501 88 11 0.0 1.0 0.00 0.00 0.00 60 1014.6
20260903222000 88 86 4.0 4.0 0.00 0.00 0.00 59 1014.4
20260903221455 88 51 4.0 6.0 0.00 0.00 0.00 59 1014.6
20260903220952 87 63 5.0 6.0 0.00 0.00 0.00 59 1014.7
20260903220447 88 67 5.0 6.0 0.00 0.00 0.00 58 1014.7
20260903215944 88 55 2.0 2.0 0.00 0.00 0.00 59 1014.7
20260903215441 89 53 2.0 3.0 0.00 0.00 0.00 57 1014.7
20260903214939 88 153 1.0 1.0 0.00 0.00 0.00 58 1014.7
20260903214435 87 87 1.0 1.0 0.00 0.00 0.00 59 1014.7
20260903213935 88 138 5.0 10.0 0.00 0.00 0.00 58 1014.5
20260903213430 89 122 3.0 4.0 0.00 0.00 0.00 56 1014.7
20260903212926 89 66 3.0 4.0 0.00 0.00 0.00 56 1014.8
20260903212422 89 138 5.0 8.0 0.00 0.00 0.00 56 1014.7
20260903211922 90 59 4.0 6.0 0.00 0.00 0.00 56 1014.7
20260903211417 91 80 1.0 2.0 0.00 0.00 0.00 55 1014.5
20260903210913 91 46 0.0 0.0 0.00 0.00 0.00 55 1014.4
20260903210413 90 59 1.0 3.0 0.00 0.00 0.00 55 1014.5
20260903205908 91 90 4.0 6.0 0.00 0.00 0.00 54 1014.5
20260903205408 92 79 3.0 3.0 0.00 0.00 0.00 56 1014.5
20260903204902 92 81 1.0 2.0 0.00 0.00 0.00 55 1014.7
20260903204359 93 15 1.0 1.0 0.00 0.00 0.00 55 1014.7
20260903203854 94 185 1.0 1.0 0.00 0.00 0.00 53 1014.5
20260903203350 93 193 1.0 1.0 0.00 0.00 0.00 56 1014.7
20260903202849 92 249 3.0 3.0 0.00 0.00 0.00 56 1014.7
20260903202346 92 297 1.0 2.0 0.00 0.00 0.00 54 1014.5
20260903201845 92 9 0.0 1.0 0.00 0.00 0.00 57 1014.8
20260903201340 92 188 2.0 2.0 0.00 0.00 0.00 55 1015.0
20260903200839 90 183 2.0 2.0 0.00 0.00 0.00 57 1014.8
20260903200335 90 102 0.0 0.0 0.00 0.00 0.00 58 1015.0
20260903195829 91 141 0.0 0.0 0.00 0.00 0.00 58 1014.9
20260903195326 90 24 1.0 1.0 0.00 0.00 0.00 59 1015.0
20260903194820 89 67 2.0 3.0 0.00 0.00 0.00 60 1015.1
20260903194316 89 72 2.0 3.0 0.00 0.00 0.00 59 1015.1
20260903193812 89 91 0.0 0.0 0.00 0.00 0.00 59 1015.3
20260903193308 89 127 0.0 1.0 0.00 0.00 0.00 59 1015.3
20260903192803 89 211 2.0 3.0 0.00 0.00 0.00 58 1015.4
20260903192258 88 182 4.0 4.0 0.00 0.00 0.00 60 1015.4
20260903191754 89 351 1.0 2.0 0.00 0.00 0.00 60 1015.5
20260903191250 88 77 2.0 3.0 0.00 0.00 0.00 61 1015.6
20260903190744 88 41 0.0 0.0 0.00 0.00 0.00 63 1015.5
20260903190244 87 10 0.0 0.0 0.00 0.00 0.00 61 1015.7
20260903185739 87 193 1.0 2.0 0.00 0.00 0.00 63 1015.6
20260903185239 87 19 1.0 1.0 0.00 0.00 0.00 62 1015.7
20260903184735 86 16 1.0 2.0 0.00 0.00 0.00 63 1016.0
20260903184231 87 68 2.0 6.0 0.00 0.00 0.00 62 1015.9
20260903183727 88 358 0.0 0.0 0.00 0.00 0.00 63 1016.0
20260903183220 86 38 0.0 0.0 0.00 0.00 0.00 66 1016.2
20260903182719 85 345 1.0 1.0 0.00 0.00 0.00 66 1016.1
20260903182215 85 63 1.0 2.0 0.00 0.00 0.00 66 1016.2
20260903181713 85 25 2.0 2.0 0.00 0.00 0.00 67 1016.3
20260903181208 85 71 4.0 4.0 0.00 0.00 0.00 69 1016.2
20260903180704 85 36 1.0 1.0 0.00 0.00 0.00 69 1016.3
20260903180204 84 29 3.0 3.0 0.00 0.00 0.00 68 1016.8
20260903175703 83 345 3.0 4.0 0.00 0.00 0.00 69 1016.7
20260903175203 83 341 5.0 6.0 0.00 0.00 0.00 71 1016.9
20260903174702 83 33 4.0 6.0 0.00 0.00 0.00 71 1016.9
20260903174157 83 39 2.0 3.0 0.00 0.00 0.00 75 1016.9
20260903173652 84 317 4.0 7.0 0.00 0.00 0.00 75 1017.1
20260903173148 83 193 2.0 3.0 0.00 0.00 0.00 75 1017.1
20260903172643 84 3 2.0 3.0 0.00 0.00 0.00 73 1017.1
20260903172138 84 349 4.0 6.0 0.00 0.00 0.00 74 1017.3
20260903171638 82 343 4.0 6.0 0.00 0.00 0.00 77 1017.2
20260903171134 83 35 6.0 9.0 0.00 0.00 0.00 77 1017.3
20260903170633 83 325 7.0 9.0 0.00 0.00 0.00 76 1017.2
20260903170129 83 351 6.0 8.0 0.00 0.00 0.00 75 1017.1
20260903165626 84 339 8.0 9.0 0.00 0.00 0.00 74 1017.2
20260903165121 85 311 4.0 4.0 0.00 0.00 0.00 73 1017.3
20260903164616 85 36 5.0 8.0 0.00 0.00 0.00 73 1016.9
20260903164113 85 351 6.0 8.0 0.00 0.00 0.00 74 1017.1
20260903163612 84 358 6.0 13.0 0.00 0.00 0.00 75 1017.0
20260903163109 84 9 3.0 4.0 0.00 0.00 0.00 75 1017.3
20260903162605 84 322 10.0 14.0 0.00 0.00 0.00 74 1017.2
20260903162101 84 355 7.0 11.0 0.00 0.00 0.00 73 1017.0
20260903161555 84 325 7.0 11.0 0.00 0.00 0.00 72 1016.8
20260903161051 85 340 9.0 13.0 0.00 0.00 0.00 70 1017.1
20260903160550 87 5 14.0 19.0 0.00 0.00 0.00 69 1016.5
20260903160045 89 309 3.0 3.0 0.00 0.00 0.00 66 1016.5
20260903155544 90 25 3.0 3.0 0.00 0.00 0.00 63 1016.0
20260903155039 90 235 1.0 1.0 0.00 0.00 0.00 63 1015.6
20260903154536 91 183 1.0 2.0 0.00 0.00 0.00 62 1015.5
20260903154032 92 243 1.0 2.0 0.00 0.00 0.00 60 1015.5
20260903153526 91 146 0.0 0.0 0.00 0.00 0.00 60 1015.4
20260903153022 91 211 2.0 2.0 0.00 0.00 0.00 60 1015.4
20260903152518 91 282 4.0 6.0 0.00 0.00 0.00 60 1015.3
20260903152015 91 179 2.0 2.0 0.00 0.00 0.00 61 1015.3
20260903151513 91 149 1.0 1.0 0.00 0.00 0.00 61 1015.5
20260903151008 90 169 4.0 6.0 0.00 0.00 0.00 62 1015.3
20260903150503 91 169 2.0 3.0 0.00 0.00 0.00 61 1015.4
20260903145958 91 224 3.0 3.0 0.00 0.00 0.00 61 1015.7
20260903145453 90 191 2.0 3.0 0.00 0.00 0.00 62 1015.5
20260903144948 89 196 0.0 1.0 0.00 0.00 0.00 64 1015.3
20260903144447 89 168 5.0 6.0 0.00 0.00 0.00 63 1015.6
20260903143943 90 147 2.0 3.0 0.00 0.00 0.00 62 1015.5
20260903143439 89 158 0.0 0.0 0.00 0.00 0.00 63 1015.4
20260903142934 89 185 2.0 3.0 0.00 0.00 0.00 64 1015.4
20260903142430 88 179 0.0 1.0 0.00 0.00 0.00 65 1015.3
20260903141926 87 295 0.0 0.0 0.00 0.00 0.00 66 1015.3
20260903141422 88 168 4.0 6.0 0.00 0.00 0.00 65 1015.3
20260903140917 87 148 1.0 1.0 0.00 0.00 0.00 67 1015.3
20260903140412 87 175 1.0 2.0 0.00 0.00 0.00 66 1015.1
20260903135908 86 219 3.0 3.0 0.00 0.00 0.00 67 1015.0
20260903135403 86 188 4.0 6.0 0.00 0.00 0.00 67 1015.2
20260903134902 86 191 2.0 3.0 0.00 0.00 0.00 68 1015.2
20260903134357 86 146 6.0 7.0 0.00 0.00 0.00 68 1015.3
20260903133855 86 70 1.0 2.0 0.00 0.00 0.00 69 1015.5
20260903133352 85 166 0.0 0.0 0.00 0.00 0.00 69 1015.4
20260903132851 85 164 2.0 3.0 0.00 0.00 0.00 70 1015.2
20260903132347 85 275 0.0 1.0 0.00 0.00 0.00 71 1015.5
20260903131847 84 268 0.0 1.0 0.00 0.00 0.00 71 1015.4
20260903131347 84 232 0.0 0.0 0.00 0.00 0.00 72 1015.5
20260903130846 84 212 1.0 2.0 0.00 0.00 0.00 72 1015.4
20260903130341 83 162 2.0 2.0 0.00 0.00 0.00 73 1015.6
20260903125839 83 167 2.0 4.0 0.00 0.00 0.00 73 1015.6
20260903125335 83 196 0.0 0.0 0.00 0.00 0.00 74 1015.6
20260903124834 83 212 2.0 3.0 0.00 0.00 0.00 74 1015.4
20260903124330 82 175 2.0 2.0 0.00 0.00 0.00 75 1015.5
20260903123828 82 177 2.0 3.0 0.00 0.00 0.00 75 1015.4
20260903123323 82 202 3.0 3.0 0.00 0.00 0.00 76 1015.6
20260903122821 81 150 2.0 2.0 0.00 0.00 0.00 77 1015.7
20260903122316 81 159 2.0 3.0 0.00 0.00 0.00 77 1015.5
20260903121815 82 168 1.0 1.0 0.00 0.00 0.00 76 1015.8
20260903121311 82 176 2.0 2.0 0.00 0.00 0.00 76 1015.6
20260903120807 81 218 1.0 1.0 0.00 0.00 0.00 77 1015.6
20260903120306 81 151 2.0 2.0 0.00 0.00 0.00 77 1015.7
20260903115804 81 140 0.0 0.0 0.00 0.00 0.00 77 1015.6
20260903115300 81 158 1.0 1.0 0.00 0.00 0.00 77 1015.4
20260903114759 81 149 4.0 4.0 0.00 0.00 0.00 77 1015.6
20260903114255 81 207 1.0 2.0 0.00 0.00 0.00 77 1015.5
20260903113750 81 208 2.0 3.0 0.00 0.00 0.00 77 1015.5
20260903113246 81 201 3.0 3.0 0.00 0.00 0.00 77 1015.5
20260903112742 81 115 2.0 3.0 0.00 0.00 0.00 78 1015.4
20260903112237 81 157 3.0 3.0 0.00 0.00 0.00 78 1015.3
20260903111736 81 224 2.0 2.0 0.00 0.00 0.00 77 1015.4
20260903111231 81 210 2.0 2.0 0.00 0.00 0.00 77 1015.3
20260903110727 81 151 2.0 3.0 0.00 0.00 0.00 77 1015.3
20260903110223 81 149 2.0 3.0 0.00 0.00 0.00 77 1015.5
20260903105722 81 234 2.0 3.0 0.00 0.00 0.00 78 1015.5
20260903105218 81 231 1.0 2.0 0.00 0.00 0.00 77 1015.5
20260903104717 81 293 1.0 1.0 0.00 0.00 0.00 77 1015.3
20260903104212 81 270 3.0 3.0 0.00 0.00 0.00 77 1015.5
20260903103708 81 199 2.0 3.0 0.00 0.00 0.00 77 1015.3
20260903103204 81 189 2.0 3.0 0.00 0.00 0.00 77 1015.3
20260903102659 81 197 1.0 1.0 0.00 0.00 0.00 78 1015.3